Location: *
(49.4547°N, 7.9131°E)
Time: 10:48:17
(UTC+00:00)

Cosmos 1733 - Pass Details

Date: 22 September 2019
Orbit: 507 x 522 km, 82.5° (Epoch: 21 October)

Event Time Altitude Azimuth Distance (km) Brightness Sun altitude
Exits shadow 19:39:04 37° 35° (NE) 816 4.1 -21.4°
Drops below altitude 10° 19:41:34 10° 17° (NNE) 1,749 6.0 -21.8°
Sets 19:43:44 0° 14° (NNE) 2,644 7.0 -22.1°
